| time (UTC) | temp F | wind direction | speed MPH | gust MPH | rain 1hr in | rain 24hr in | rain mn in | humidity % | barometer mb |
| 20260905035504 | 57 | 360 | 0.0 | 0.0 | 0.00 | 0.03 | 0.03 | 36 | 1014.2 |
| 20260905035004 | 58 | 146 | 0.0 | 0.0 | 0.00 | 0.03 | 0.03 | 37 | 1014.1 |
| 20260905034504 | 58 | 360 | 0.0 | 0.0 | 0.00 | 0.03 | 0.03 | 40 | 1014.1 |
| 20260905034102 | 58 | 360 | 0.0 | 0.0 | 0.00 | 0.03 | 0.03 | 43 | 1014.0 |
| 20260905033559 | 58 | 360 | 0.0 | 0.0 | 0.00 | 0.03 | 0.03 | 48 | 1013.9 |
| 20260905033057 | 58 | 360 | 0.0 | 0.0 | 0.00 | 0.03 | 0.03 | 52 | 1014.0 |
| 20260905032558 | 59 | 360 | 0.0 | 0.0 | 0.00 | 0.03 | 0.03 | 56 | 1013.9 |
| 20260905032054 | 59 | 63 | 0.0 | 0.0 | 0.00 | 0.03 | 0.03 | 59 | 1013.9 |
| 20260905031556 | 60 | 63 | 0.0 | 0.0 | 0.00 | 0.03 | 0.03 | 60 | 1013.8 |
| 20260905031052 | 60 | 63 | 0.0 | 0.0 | 0.00 | 0.03 | 0.03 | 61 | 1013.7 |
| 20260905030550 | 60 | 63 | 0.0 | 0.0 | 0.00 | 0.03 | 0.03 | 62 | 1013.7 |
| 20260905025549 | 61 | 63 | 0.0 | 0.0 | 0.00 | 0.03 | 0.03 | 64 | 1013.6 |
| 20260905025047 | 61 | 261 | 0.0 | 0.0 | 0.00 | 0.03 | 0.03 | 64 | 1013.6 |
| 20260905024550 | 62 | 261 | 0.0 | 0.0 | 0.00 | 0.03 | 0.03 | 65 | 1013.6 |
| 20260905024044 | 62 | 261 | 0.0 | 0.0 | 0.00 | 0.03 | 0.03 | 65 | 1013.6 |
| 20260905023543 | 62 | 261 | 0.0 | 0.0 | 0.00 | 0.03 | 0.03 | 65 | 1013.6 |
| 20260905023042 | 62 | 261 | 0.0 | 0.0 | 0.00 | 0.03 | 0.03 | 66 | 1013.5 |
| 20260905022540 | 63 | 261 | 0.0 | 0.0 | 0.00 | 0.03 | 0.03 | 65 | 1013.5 |
| 20260905022039 | 63 | 264 | 0.0 | 0.0 | 0.00 | 0.03 | 0.03 | 66 | 1013.4 |
| 20260905021541 | 63 | 264 | 0.0 | 0.0 | 0.00 | 0.03 | 0.03 | 66 | 1013.5 |
| 20260905021035 | 63 | 264 | 0.0 | 0.0 | 0.00 | 0.03 | 0.03 | 66 | 1013.4 |
| 20260905020536 | 64 | 264 | 0.0 | 0.0 | 0.00 | 0.03 | 0.03 | 65 | 1013.4 |
| 20260905020032 | 64 | 279 | 0.0 | 0.0 | 0.00 | 0.03 | 0.03 | 65 | 1013.4 |
| 20260905015531 | 64 | 279 | 0.0 | 0.0 | 0.00 | 0.03 | 0.03 | 65 | 1013.4 |
| 20260905015030 | 64 | 276 | 0.0 | 0.0 | 0.00 | 0.03 | 0.03 | 65 | 1013.3 |
| 20260905014531 | 64 | 259 | 0.0 | 0.0 | 0.00 | 0.03 | 0.03 | 65 | 1013.2 |
| 20260905014027 | 64 | 277 | 0.0 | 0.0 | 0.00 | 0.03 | 0.03 | 65 | 1013.1 |
| 20260905013528 | 64 | 240 | 0.0 | 0.0 | 0.00 | 0.03 | 0.03 | 65 | 1013.2 |
| 20260905013025 | 64 | 290 | 0.0 | 0.0 | 0.00 | 0.03 | 0.03 | 65 | 1013.0 |
| 20260905012522 | 64 | 265 | 0.0 | 0.0 | 0.00 | 0.03 | 0.03 | 65 | 1013.0 |
| 20260905012021 | 65 | 286 | 0.0 | 0.0 | 0.00 | 0.03 | 0.03 | 65 | 1012.9 |
| 20260905011519 | 64 | 294 | 0.0 | 0.0 | 0.00 | 0.03 | 0.03 | 65 | 1012.9 |
| 20260905011019 | 64 | 271 | 0.0 | 0.0 | 0.00 | 0.03 | 0.03 | 64 | 1012.9 |
| 20260905010518 | 64 | 290 | 0.0 | 0.0 | 0.00 | 0.03 | 0.03 | 65 | 1013.0 |
| 20260905010016 | 64 | 243 | 0.0 | 0.0 | 0.00 | 0.12 | 0.03 | 65 | 1012.8 |
| 20260905005513 | 64 | 281 | 0.0 | 0.0 | 0.00 | 0.12 | 0.03 | 65 | 1012.8 |
| 20260905005012 | 64 | 292 | 0.0 | 0.0 | 0.00 | 0.12 | 0.03 | 65 | 1012.9 |
| 20260905004510 | 64 | 286 | 0.0 | 0.0 | 0.00 | 0.12 | 0.03 | 65 | 1012.8 |
| 20260905004009 | 64 | 283 | 0.0 | 0.0 | 0.00 | 0.12 | 0.03 | 65 | 1012.7 |
| 20260905003511 | 64 | 296 | 0.0 | 0.0 | 0.00 | 0.12 | 0.03 | 65 | 1012.6 |
| 20260905003009 | 64 | 287 | 0.0 | 0.0 | 0.00 | 0.12 | 0.03 | 65 | 1012.6 |
| 20260905002505 | 65 | 262 | 0.0 | 0.0 | 0.00 | 0.12 | 0.03 | 65 | 1012.7 |
| 20260905002003 | 65 | 281 | 0.0 | 0.0 | 0.00 | 0.12 | 0.03 | 64 | 1012.7 |
| 20260905001502 | 66 | 302 | 0.0 | 0.0 | 0.00 | 0.12 | 0.03 | 62 | 1012.7 |
| 20260905001100 | 66 | 279 | 0.0 | 0.0 | 0.00 | 0.12 | 0.03 | 62 | 1012.6 |
| 20260905000559 | 67 | 269 | 0.0 | 0.0 | 0.00 | 0.12 | 0.03 | 61 | 1012.6 |
| 20260905000103 | 67 | 281 | 0.0 | 0.0 | 0.00 | 0.12 | 0.03 | 61 | 1012.6 |
| 20260904235556 | 68 | 323 | 0.0 | 0.0 | 0.00 | 0.13 | 0.03 | 60 | 1012.5 |
| 20260904235054 | 67 | 303 | 0.0 | 0.0 | 0.00 | 0.13 | 0.03 | 61 | 1012.4 |
| 20260904234558 | 67 | 286 | 0.0 | 0.0 | 0.00 | 0.13 | 0.03 | 63 | 1012.3 |
| 20260904234053 | 67 | 288 | 0.0 | 0.0 | 0.00 | 0.13 | 0.03 | 61 | 1012.3 |
| 20260904233550 | 67 | 285 | 0.0 | 0.0 | 0.00 | 0.13 | 0.03 | 59 | 1012.3 |
| 20260904233051 | 67 | 293 | 0.0 | 0.0 | 0.00 | 0.13 | 0.03 | 57 | 1012.3 |
| 20260904232548 | 67 | 273 | 0.0 | 0.0 | 0.00 | 0.13 | 0.03 | 57 | 1012.4 |
| 20260904232045 | 66 | 260 | 0.0 | 0.0 | 0.00 | 0.13 | 0.03 | 57 | 1012.4 |
| 20260904231544 | 66 | 274 | 0.0 | 0.0 | 0.00 | 0.13 | 0.03 | 61 | 1012.3 |
| 20260904231043 | 65 | 232 | 0.0 | 0.0 | 0.00 | 0.13 | 0.03 | 62 | 1012.3 |
| 20260904230541 | 65 | 304 | 0.0 | 0.0 | 0.00 | 0.13 | 0.03 | 63 | 1012.4 |
| 20260904230040 | 65 | 296 | 0.0 | 0.0 | 0.00 | 0.13 | 0.03 | 63 | 1012.3 |
| 20260904225539 | 65 | 304 | 0.0 | 0.0 | 0.00 | 0.13 | 0.03 | 63 | 1012.4 |
| 20260904225038 | 65 | 292 | 0.0 | 0.0 | 0.00 | 0.13 | 0.03 | 63 | 1012.4 |
| 20260904224535 | 65 | 309 | 0.0 | 0.0 | 0.00 | 0.13 | 0.03 | 60 | 1012.3 |
| 20260904224034 | 65 | 281 | 0.0 | 0.0 | 0.00 | 0.13 | 0.03 | 60 | 1012.2 |
| 20260904223532 | 66 | 273 | 0.0 | 0.0 | 0.00 | 0.13 | 0.03 | 60 | 1012.3 |
| 20260904223043 | 66 | 275 | 0.0 | 0.0 | 0.00 | 0.13 | 0.03 | 60 | 1012.2 |
| 20260904222530 | 66 | 252 | 0.0 | 0.0 | 0.00 | 0.13 | 0.03 | 59 | 1012.1 |
| 20260904222029 | 66 | 284 | 0.0 | 0.0 | 0.00 | 0.13 | 0.03 | 58 | 1012.0 |
| 20260904221542 | 66 | 257 | 0.0 | 0.0 | 0.00 | 0.13 | 0.03 | 56 | 1012.0 |
| 20260904221025 | 66 | 257 | 0.0 | 0.0 | 0.00 | 0.13 | 0.03 | 55 | 1012.1 |
| 20260904220523 | 66 | 265 | 0.0 | 0.0 | 0.00 | 0.13 | 0.03 | 57 | 1012.2 |
| 20260904220022 | 66 | 241 | 0.0 | 0.0 | 0.00 | 0.13 | 0.03 | 58 | 1012.0 |
| 20260904215520 | 66 | 298 | 0.0 | 0.0 | 0.00 | 0.13 | 0.03 | 57 | 1012.1 |
| 20260904215020 | 66 | 277 | 0.0 | 0.0 | 0.00 | 0.13 | 0.03 | 55 | 1012.2 |
| 20260904214519 | 66 | 284 | 0.0 | 0.0 | 0.00 | 0.13 | 0.03 | 55 | 1012.1 |
| 20260904214016 | 67 | 262 | 0.0 | 0.0 | 0.00 | 0.13 | 0.03 | 56 | 1012.1 |
| 20260904213515 | 66 | 258 | 0.0 | 0.0 | 0.00 | 0.13 | 0.03 | 56 | 1012.1 |
| 20260904213016 | 66 | 219 | 0.0 | 0.0 | 0.00 | 0.13 | 0.03 | 58 | 1012.2 |
| 20260904212512 | 66 | 246 | 0.0 | 0.0 | 0.00 | 0.13 | 0.03 | 58 | 1012.2 |
| 20260904212011 | 66 | 305 | 0.0 | 0.0 | 0.01 | 0.13 | 0.03 | 60 | 1012.1 |
| 20260904211509 | 66 | 279 | 0.0 | 0.0 | 0.01 | 0.13 | 0.03 | 58 | 1012.1 |
| 20260904211011 | 66 | 298 | 0.0 | 0.0 | 0.01 | 0.13 | 0.03 | 59 | 1012.0 |
| 20260904210505 | 66 | 299 | 0.0 | 0.0 | 0.01 | 0.13 | 0.03 | 59 | 1012.1 |
| 20260904210004 | 66 | 296 | 0.0 | 0.0 | 0.01 | 0.13 | 0.03 | 60 | 1012.0 |
| 20260904205503 | 66 | 265 | 0.0 | 0.0 | 0.01 | 0.13 | 0.03 | 61 | 1012.1 |
| 20260904205002 | 65 | 281 | 0.0 | 0.0 | 0.01 | 0.13 | 0.03 | 64 | 1012.0 |
| 20260904204600 | 65 | 281 | 0.0 | 0.0 | 0.01 | 0.13 | 0.03 | 63 | 1012.0 |
| 20260904204059 | 64 | 273 | 0.0 | 0.0 | 0.01 | 0.13 | 0.03 | 63 | 1012.0 |
| 20260904203557 | 64 | 273 | 0.0 | 0.0 | 0.01 | 0.13 | 0.03 | 64 | 1012.1 |
| 20260904203056 | 64 | 273 | 0.0 | 0.0 | 0.01 | 0.13 | 0.03 | 63 | 1012.0 |
| 20260904202555 | 64 | 273 | 0.0 | 0.0 | 0.01 | 0.13 | 0.03 | 65 | 1012.2 |
| 20260904202053 | 64 | 273 | 0.0 | 0.0 | 0.00 | 0.12 | 0.02 | 64 | 1012.2 |
| 20260904201554 | 63 | 273 | 0.0 | 0.0 | 0.00 | 0.12 | 0.02 | 66 | 1012.3 |
| 20260904201050 | 63 | 272 | 0.0 | 0.0 | 0.00 | 0.12 | 0.02 | 67 | 1012.3 |
| 20260904200548 | 62 | 273 | 0.0 | 0.0 | 0.00 | 0.12 | 0.02 | 66 | 1012.4 |
| 20260904200108 | 62 | 273 | 0.0 | 0.0 | 0.00 | 0.12 | 0.02 | 66 | 1012.4 |
| 20260904195545 | 62 | 271 | 0.0 | 0.0 | 0.00 | 0.12 | 0.02 | 66 | 1012.4 |
| 20260904195047 | 62 | 282 | 0.0 | 0.0 | 0.00 | 0.12 | 0.02 | 66 | 1012.5 |
| 20260904194622 | 62 | 282 | 0.0 | 0.0 | 0.00 | 0.12 | 0.02 | 65 | 1012.5 |
| 20260904194041 | 61 | 281 | 0.0 | 0.0 | 0.00 | 0.12 | 0.02 | 66 | 1012.6 |
| 20260904193540 | 61 | 281 | 0.0 | 0.0 | 0.00 | 0.12 | 0.02 | 66 | 1012.6 |
| 20260904193043 | 61 | 281 | 0.0 | 0.0 | 0.00 | 0.12 | 0.02 | 65 | 1012.7 |
| 20260904192536 | 61 | 281 | 0.0 | 0.0 | 0.00 | 0.12 | 0.02 | 62 | 1012.8 |
| 20260904192036 | 61 | 281 | 0.0 | 0.0 | 0.00 | 0.12 | 0.02 | 62 | 1012.8 |
| 20260904191535 | 61 | 279 | 0.0 | 0.0 | 0.00 | 0.12 | 0.02 | 59 | 1012.7 |
| 20260904191032 | 61 | 282 | 0.0 | 0.0 | 0.00 | 0.12 | 0.02 | 55 | 1012.7 |
| 20260904190531 | 60 | 281 | 0.0 | 0.0 | 0.00 | 0.12 | 0.02 | 56 | 1012.8 |
| 20260904190029 | 60 | 275 | 0.0 | 0.0 | 0.00 | 0.12 | 0.02 | 57 | 1012.9 |
| 20260904185528 | 60 | 281 | 0.0 | 0.0 | 0.00 | 0.12 | 0.02 | 57 | 1013.0 |
| 20260904185026 | 60 | 274 | 0.0 | 0.0 | 0.00 | 0.12 | 0.02 | 55 | 1012.9 |
| 20260904184525 | 60 | 308 | 0.0 | 0.0 | 0.00 | 0.12 | 0.02 | 51 | 1012.9 |
| 20260904184024 | 60 | 309 | 0.0 | 0.0 | 0.00 | 0.12 | 0.02 | 48 | 1012.9 |
| 20260904183523 | 59 | 248 | 0.0 | 0.0 | 0.00 | 0.12 | 0.02 | 44 | 1012.9 |
| 20260904183021 | 59 | 248 | 0.0 | 0.0 | 0.00 | 0.12 | 0.02 | 48 | 1013.0 |
| 20260904182519 | 59 | 248 | 0.0 | 0.0 | 0.00 | 0.12 | 0.02 | 43 | 1013.0 |
| 20260904182018 | 58 | 248 | 0.0 | 0.0 | 0.00 | 0.12 | 0.02 | 45 | 1012.9 |
| 20260904181517 | 58 | 246 | 0.0 | 0.0 | 0.00 | 0.12 | 0.02 | 45 | 1012.8 |
| 20260904181015 | 58 | 244 | 0.0 | 0.0 | 0.00 | 0.12 | 0.02 | 37 | 1012.9 |
| 20260904180515 | 58 | 244 | 0.0 | 0.0 | 0.00 | 0.12 | 0.02 | 28 | 1012.9 |
| 20260904180012 | 58 | 244 | 0.0 | 0.0 | 0.00 | 0.12 | 0.02 | 29 | 1012.9 |
| 20260904175510 | 58 | 244 | 0.0 | 0.0 | 0.00 | 0.12 | 0.02 | 27 | 1012.8 |
| 20260904175009 | 58 | 244 | 0.0 | 0.0 | 0.00 | 0.12 | 0.02 | 35 | 1013.0 |
| 20260904174510 | 58 | 244 | 0.0 | 0.0 | 0.00 | 0.12 | 0.02 | 35 | 1012.9 |
| 20260904174007 | 58 | 244 | 0.0 | 0.0 | 0.00 | 0.12 | 0.02 | 24 | 1012.8 |
| 20260904173506 | 57 | 244 | 0.0 | 0.0 | 0.00 | 0.12 | 0.02 | 24 | 1012.9 |
| 20260904173005 | 57 | 244 | 0.0 | 0.0 | 0.00 | 0.12 | 0.02 | 19 | 1012.8 |
| 20260904172502 | 57 | 238 | 0.0 | 0.0 | 0.00 | 0.12 | 0.02 | 11 | 1012.9 |
| 20260904172001 | 56 | 238 | 0.0 | 0.0 | 0.00 | 0.12 | 0.02 | 1 | 1012.9 |
| 20260904171600 | 56 | 236 | 0.0 | 0.0 | 0.00 | 0.12 | 0.02 | 2 | 1012.8 |
| 20260904171059 | 55 | 236 | 0.0 | 0.0 | 0.00 | 0.12 | 0.02 | 4 | 1012.9 |
| 20260904170558 | 55 | 236 | 0.0 | 0.0 | 0.00 | 0.12 | 0.02 | 1 | 1012.9 |
| 20260904170056 | 54 | 236 | 0.0 | 0.0 | 0.00 | 0.12 | 0.02 | 1 | 1012.8 |
| 20260904165553 | 53 | 230 | 0.0 | 0.0 | 0.00 | 0.12 | 0.02 | 1 | 1012.9 |
| 20260904165052 | 53 | 230 | 0.0 | 0.0 | 0.00 | 0.12 | 0.02 | 1 | 1012.9 |
| 20260904164555 | 53 | 230 | 0.0 | 0.0 | 0.00 | 0.12 | 0.02 | 1 | 1012.8 |
| 20260904164052 | 53 | 230 | 0.0 | 0.0 | 0.00 | 0.12 | 0.02 | 1 | 1012.8 |
| 20260904163548 | 52 | 230 | 0.0 | 0.0 | 0.00 | 0.12 | 0.02 | 1 | 1012.7 |
| 20260904163046 | 52 | 230 | 0.0 | 0.0 | 0.00 | 0.12 | 0.02 | 1 | 1012.8 |
| 20260904162545 | 52 | 229 | 0.0 | 0.0 | 0.00 | 0.12 | 0.02 | 1 | 1012.8 |
| 20260904162043 | 52 | 230 | 0.0 | 0.0 | 0.00 | 0.12 | 0.02 | 1 | 1012.8 |
| 20260904161546 | 52 | 230 | 0.0 | 0.0 | 0.00 | 0.12 | 0.02 | 1 | 1012.8 |
| 20260904161042 | 52 | 230 | 0.0 | 0.0 | 0.00 | 0.12 | 0.02 | 1 | 1012.8 |
| 20260904160541 | 52 | 230 | 0.0 | 0.0 | 0.00 | 0.12 | 0.02 | 1 | 1012.9 |
| 20260904160040 | 52 | 229 | 0.0 | 0.0 | 0.00 | 0.12 | 0.02 | 1 | 1012.8 |
| 20260904155536 | 52 | 229 | 0.0 | 0.0 | 0.00 | 0.12 | 0.02 | 1 | 1012.8 |
| 20260904155034 | 52 | 229 | 0.0 | 0.0 | 0.00 | 0.12 | 0.02 | 1 | 1012.8 |
| 20260904154533 | 52 | 229 | 0.0 | 0.0 | 0.00 | 0.12 | 0.02 | 1 | 1012.9 |
| 20260904154032 | 52 | 229 | 0.0 | 0.0 | 0.00 | 0.12 | 0.02 | 1 | 1012.7 |
| 20260904153531 | 52 | 229 | 0.0 | 0.0 | 0.00 | 0.12 | 0.02 | 1 | 1012.7 |
| 20260904153029 | 51 | 229 | 0.0 | 0.0 | 0.00 | 0.12 | 0.02 | 1 | 1012.5 |
| 20260904152527 | 51 | 229 | 0.0 | 0.0 | 0.00 | 0.12 | 0.02 | 1 | 1012.6 |
| 20260904152026 | 51 | 229 | 0.0 | 0.0 | 0.00 | 0.12 | 0.02 | 1 | 1012.5 |
| 20260904151536 | 51 | 230 | 0.0 | 0.0 | 0.00 | 0.12 | 0.02 | 1 | 1012.4 |
| 20260904151024 | 51 | 230 | 0.0 | 0.0 | 0.00 | 0.12 | 0.02 | 1 | 1012.4 |
| 20260904150522 | 51 | 229 | 0.0 | 0.0 | 0.00 | 0.12 | 0.02 | 1 | 1012.5 |
| 20260904150025 | 51 | 229 | 0.0 | 0.0 | 0.00 | 0.12 | 0.02 | 1 | 1012.4 |
| 20260904145519 | 51 | 229 | 0.0 | 0.0 | 0.00 | 0.12 | 0.02 | 1 | 1012.4 |
| 20260904145018 | 51 | 229 | 0.0 | 0.0 | 0.00 | 0.12 | 0.02 | 1 | 1012.4 |
| 20260904144516 | 51 | 229 | 0.0 | 0.0 | 0.00 | 0.12 | 0.02 | 1 | 1012.3 |
| 20260904144014 | 51 | 229 | 0.0 | 0.0 | 0.00 | 0.12 | 0.02 | 1 | 1012.3 |
| 20260904143515 | 51 | 229 | 0.0 | 0.0 | 0.00 | 0.12 | 0.02 | 1 | 1012.3 |
| 20260904143012 | 51 | 226 | 0.0 | 0.0 | 0.00 | 0.12 | 0.02 | 1 | 1012.2 |
| 20260904142514 | 51 | 360 | 0.0 | 0.0 | 0.00 | 0.12 | 0.02 | 1 | 1012.1 |
| 20260904142009 | 51 | 360 | 0.0 | 0.0 | 0.00 | 0.12 | 0.02 | 1 | 1012.2 |
| 20260904141508 | 51 | 360 | 0.0 | 0.0 | 0.00 | 0.12 | 0.02 | 1 | 1012.2 |
| 20260904141010 | 51 | 360 | 0.0 | 0.0 | 0.00 | 0.12 | 0.02 | 1 | 1012.0 |
| 20260904140506 | 51 | 360 | 0.0 | 0.0 | 0.00 | 0.12 | 0.02 | 1 | 1012.0 |
| 20260904140004 | 51 | 360 | 0.0 | 0.0 | 0.00 | 0.12 | 0.02 | 1 | 1011.8 |
| 20260904135503 | 51 | 360 | 0.0 | 0.0 | 0.00 | 0.12 | 0.02 | 1 | 1011.7 |
| 20260904135101 | 51 | 360 | 0.0 | 0.0 | 0.00 | 0.12 | 0.02 | 1 | 1011.7 |
| 20260904134616 | 51 | 360 | 0.0 | 0.0 | 0.00 | 0.12 | 0.02 | 1 | 1011.7 |
| 20260904134059 | 51 | 360 | 0.0 | 0.0 | 0.00 | 0.12 | 0.02 | 1 | 1011.7 |
| 20260904133556 | 51 | 360 | 0.0 | 0.0 | 0.00 | 0.12 | 0.02 | 1 | 1011.7 |
| 20260904133108 | 51 | 360 | 0.0 | 0.0 | 0.00 | 0.12 | 0.02 | 1 | 1011.5 |
| 20260904132555 | 51 | 360 | 0.0 | 0.0 | 0.00 | 0.12 | 0.02 | 1 | 1011.5 |
| 20260904132052 | 51 | 360 | 0.0 | 0.0 | 0.00 | 0.12 | 0.02 | 1 | 1011.4 |
| 20260904131605 | 51 | 360 | 0.0 | 0.0 | 0.01 | 0.12 | 0.02 | 1 | 1011.3 |
| 20260904131049 | 51 | 360 | 0.0 | 0.0 | 0.01 | 0.12 | 0.02 | 1 | 1011.3 |
| 20260904130547 | 51 | 360 | 0.0 | 0.0 | 0.01 | 0.12 | 0.02 | 1 | 1011.3 |
| 20260904130046 | 51 | 360 | 0.0 | 0.0 | 0.01 | 0.12 | 0.02 | 1 | 1011.2 |
| 20260904125549 | 51 | 360 | 0.0 | 0.0 | 0.01 | 0.12 | 0.02 | 1 | 1011.2 |
| 20260904125047 | 51 | 360 | 0.0 | 0.0 | 0.01 | 0.12 | 0.02 | 1 | 1011.2 |
| 20260904124542 | 51 | 360 | 0.0 | 0.0 | 0.01 | 0.12 | 0.02 | 1 | 1011.0 |
| 20260904124040 | 51 | 229 | 0.0 | 0.0 | 0.01 | 0.12 | 0.02 | 1 | 1011.1 |
| 20260904123539 | 51 | 229 | 0.0 | 0.0 | 0.01 | 0.12 | 0.02 | 1 | 1011.1 |
| 20260904123038 | 51 | 229 | 0.0 | 0.0 | 0.01 | 0.12 | 0.02 | 1 | 1011.1 |
| 20260904122537 | 51 | 229 | 0.0 | 0.0 | 0.02 | 0.12 | 0.02 | 1 | 1011.1 |
| 20260904122035 | 51 | 229 | 0.0 | 0.0 | 0.02 | 0.12 | 0.02 | 1 | 1011.0 |
| 20260904121537 | 51 | 229 | 0.0 | 0.0 | 0.01 | 0.11 | 0.01 | 1 | 1011.1 |
| 20260904121031 | 52 | 229 | 0.0 | 0.0 | 0.01 | 0.11 | 0.01 | 1 | 1011.0 |
| 20260904120530 | 52 | 229 | 0.0 | 0.0 | 0.01 | 0.11 | 0.01 | 1 | 1011.0 |
| 20260904120032 | 52 | 229 | 0.0 | 0.0 | 0.01 | 0.11 | 0.01 | 1 | 1011.0 |
| 20260904115528 | 52 | 229 | 0.0 | 0.0 | 0.01 | 0.11 | 0.01 | 1 | 1010.9 |
| 20260904115025 | 52 | 229 | 0.0 | 0.0 | 0.01 | 0.11 | 0.01 | 1 | 1010.8 |
| 20260904114524 | 52 | 229 | 0.0 | 0.0 | 0.01 | 0.11 | 0.01 | 1 | 1010.9 |
| 20260904114024 | 52 | 229 | 0.0 | 0.0 | 0.01 | 0.11 | 0.01 | 1 | 1010.8 |
| 20260904113522 | 52 | 229 | 0.0 | 0.0 | 0.01 | 0.11 | 0.01 | 1 | 1010.8 |
| 20260904113031 | 52 | 229 | 0.0 | 0.0 | 0.01 | 0.11 | 0.01 | 1 | 1010.8 |
| 20260904112519 | 52 | 229 | 0.0 | 0.0 | 0.00 | 0.10 | 0.00 | 1 | 1010.7 |
| 20260904112018 | 52 | 229 | 0.0 | 0.0 | 0.00 | 0.10 | 0.00 | 1 | 1010.6 |
| 20260904111523 | 52 | 229 | 0.0 | 0.0 | 0.00 | 0.10 | 0.00 | 1 | 1010.6 |
| 20260904111022 | 52 | 229 | 0.0 | 0.0 | 0.00 | 0.10 | 0.00 | 1 | 1010.6 |
| 20260904110512 | 52 | 229 | 0.0 | 0.0 | 0.00 | 0.10 | 0.00 | 1 | 1010.6 |
| 20260904110011 | 52 | 230 | 0.0 | 0.0 | 0.00 | 0.10 | 0.00 | 1 | 1010.6 |
| 20260904105509 | 52 | 229 | 0.0 | 0.0 | 0.00 | 0.10 | 0.00 | 1 | 1010.4 |
| 20260904105008 | 52 | 229 | 0.0 | 0.0 | 0.00 | 0.10 | 0.00 | 1 | 1010.3 |
| 20260904104507 | 52 | 229 | 0.0 | 0.0 | 0.00 | 0.10 | 0.00 | 1 | 1010.4 |
| 20260904104006 | 52 | 229 | 0.0 | 0.0 | 0.00 | 0.10 | 0.00 | 1 | 1010.4 |
| 20260904103504 | 52 | 229 | 0.0 | 0.0 | 0.00 | 0.10 | 0.00 | 1 | 1010.3 |
| 20260904103004 | 52 | 229 | 0.0 | 0.0 | 0.00 | 0.10 | 0.00 | 1 | 1010.3 |
| 20260904102501 | 52 | 229 | 0.0 | 0.0 | 0.00 | 0.10 | 0.00 | 1 | 1010.2 |
| 20260904102100 | 52 | 229 | 0.0 | 0.0 | 0.00 | 0.10 | 0.00 | 1 | 1010.1 |
| 20260904101600 | 52 | 229 | 0.0 | 0.0 | 0.00 | 0.10 | 0.00 | 1 | 1010.2 |
| 20260904101056 | 52 | 229 | 0.0 | 0.0 | 0.00 | 0.10 | 0.00 | 1 | 1010.2 |
| 20260904100555 | 52 | 230 | 0.0 | 0.0 | 0.00 | 0.10 | 0.00 | 1 | 1010.1 |
| 20260904095555 | 52 | 230 | 0.0 | 0.0 | 0.00 | 0.10 | 0.00 | 1 | 1009.9 |
| 20260904095050 | 52 | 230 | 0.0 | 0.0 | 0.00 | 0.10 | 0.00 | 1 | 1010.0 |
| 20260904094549 | 52 | 230 | 0.0 | 0.0 | 0.00 | 0.10 | 0.00 | 1 | 1009.8 |
| 20260904094051 | 52 | 230 | 0.0 | 0.0 | 0.00 | 0.10 | 0.00 | 1 | 1009.9 |
| 20260904093548 | 52 | 230 | 0.0 | 0.0 | 0.00 | 0.10 | 0.00 | 1 | 1009.9 |
| 20260904093052 | 52 | 229 | 0.0 | 0.0 | 0.00 | 0.10 | 0.00 | 1 | 1009.9 |
| 20260904092543 | 52 | 229 | 0.0 | 0.0 | 0.00 | 0.10 | 0.00 | 1 | 1009.9 |
| 20260904092042 | 52 | 222 | 0.0 | 0.0 | 0.00 | 0.10 | 0.00 | 1 | 1009.7 |
| 20260904091542 | 52 | 238 | 0.0 | 0.0 | 0.00 | 0.10 | 0.00 | 1 | 1009.8 |
| 20260904091038 | 52 | 238 | 0.0 | 0.0 | 0.00 | 0.10 | 0.00 | 1 | 1009.8 |
| 20260904090537 | 52 | 238 | 0.0 | 0.0 | 0.00 | 0.10 | 0.00 | 1 | 1009.8 |
| 20260904090047 | 52 | 238 | 0.0 | 0.0 | 0.00 | 0.10 | 0.00 | 1 | 1009.8 |
| 20260904085534 | 53 | 238 | 0.0 | 0.0 | 0.00 | 0.10 | 0.00 | 1 | 1009.8 |
| 20260904085033 | 53 | 238 | 0.0 | 0.0 | 0.00 | 0.10 | 0.00 | 1 | 1009.9 |
| 20260904084532 | 53 | 238 | 0.0 | 0.0 | 0.00 | 0.10 | 0.00 | 1 | 1009.8 |
| 20260904084031 | 53 | 238 | 0.0 | 0.0 | 0.00 | 0.10 | 0.00 | 1 | 1009.8 |
| 20260904083528 | 53 | 238 | 0.0 | 0.0 | 0.00 | 0.10 | 0.00 | 1 | 1009.8 |
| 20260904083027 | 53 | 238 | 0.0 | 0.0 | 0.00 | 0.10 | 0.00 | 1 | 1009.7 |
| 20260904082526 | 53 | 238 | 0.0 | 0.0 | 0.00 | 0.10 | 0.00 | 1 | 1009.8 |
| 20260904082027 | 53 | 238 | 0.0 | 0.0 | 0.00 | 0.10 | 0.00 | 1 | 1009.8 |
| 20260904081523 | 53 | 238 | 0.0 | 0.0 | 0.00 | 0.10 | 0.00 | 1 | 1009.6 |
| 20260904081022 | 53 | 238 | 0.0 | 0.0 | 0.00 | 0.10 | 0.00 | 1 | 1009.7 |
| 20260904080520 | 53 | 238 | 0.0 | 0.0 | 0.00 | 0.10 | 0.00 | 1 | 1009.6 |
| 20260904080025 | 53 | 238 | 0.0 | 0.0 | 0.00 | 0.10 | 0.00 | 1 | 1009.6 |
| 20260904075516 | 53 | 238 | 0.0 | 0.0 | 0.00 | 0.10 | 0.00 | 1 | 1009.7 |
| 20260904075014 | 53 | 238 | 0.0 | 0.0 | 0.00 | 0.10 | 0.00 | 1 | 1009.6 |
| 20260904074525 | 53 | 238 | 0.0 | 0.0 | 0.00 | 0.10 | 0.00 | 1 | 1009.8 |
| 20260904074012 | 53 | 238 | 0.0 | 0.0 | 0.00 | 0.10 | 0.00 | 1 | 1009.7 |
| 20260904073515 | 54 | 238 | 0.0 | 0.0 | 0.00 | 0.10 | 0.00 | 1 | 1009.7 |
| 20260904073012 | 54 | 238 | 0.0 | 0.0 | 0.00 | 0.10 | 0.00 | 1 | 1009.6 |
| 20260904072508 | 54 | 238 | 0.0 | 0.0 | 0.00 | 0.10 | 0.00 | 1 | 1009.7 |
| 20260904072007 | 54 | 238 | 0.0 | 0.0 | 0.00 | 0.10 | 0.00 | 1 | 1009.7 |
| 20260904071505 | 54 | 238 | 0.0 | 0.0 | 0.00 | 0.10 | 0.00 | 1 | 1009.6 |
| 20260904071004 | 54 | 238 | 0.0 | 0.0 | 0.00 | 0.10 | 0.00 | 1 | 1009.7 |
| 20260904070502 | 54 | 238 | 0.0 | 0.0 | 0.00 | 0.10 | 0.00 | 1 | 1009.7 |
| 20260904070001 | 54 | 238 | 0.0 | 0.0 | 0.00 | 0.10 | 0.10 | 1 | 1009.5 |
| 20260904065501 | 54 | 236 | 0.0 | 0.0 | 0.00 | 0.10 | 0.10 | 1 | 1009.5 |
| 20260904065001 | 54 | 266 | 0.0 | 0.0 | 0.00 | 0.10 | 0.10 | 1 | 1009.4 |
| 20260904064620 | 54 | 266 | 0.0 | 0.0 | 0.00 | 0.10 | 0.10 | 1 | 1009.5 |
| 20260904064102 | 54 | 266 | 0.0 | 0.0 | 0.00 | 0.10 | 0.10 | 1 | 1009.4 |
| 20260904063557 | 54 | 266 | 0.0 | 0.0 | 0.00 | 0.10 | 0.10 | 1 | 1009.3 |
| 20260904063057 | 54 | 266 | 0.0 | 0.0 | 0.00 | 0.10 | 0.10 | 1 | 1009.3 |
| 20260904062558 | 54 | 267 | 0.0 | 0.0 | 0.00 | 0.10 | 0.10 | 1 | 1009.3 |
| 20260904062053 | 54 | 267 | 0.0 | 0.0 | 0.00 | 0.10 | 0.10 | 1 | 1009.3 |
| 20260904061553 | 54 | 267 | 0.0 | 0.0 | 0.00 | 0.10 | 0.10 | 1 | 1009.2 |
| 20260904061053 | 54 | 267 | 0.0 | 0.0 | 0.00 | 0.10 | 0.10 | 1 | 1009.4 |
| 20260904060551 | 54 | 250 | 0.0 | 0.0 | 0.00 | 0.10 | 0.10 | 1 | 1009.3 |
| 20260904060047 | 55 | 250 | 0.0 | 0.0 | 0.00 | 0.10 | 0.10 | 1 | 1009.3 |
| 20260904055546 | 55 | 250 | 0.0 | 0.0 | 0.00 | 0.10 | 0.10 | 1 | 1009.2 |
| 20260904055044 | 55 | 250 | 0.0 | 0.0 | 0.00 | 0.10 | 0.10 | 1 | 1009.4 |
| 20260904054544 | 55 | 250 | 0.0 | 0.0 | 0.00 | 0.10 | 0.10 | 1 | 1009.3 |
| 20260904054042 | 55 | 250 | 0.0 | 0.0 | 0.00 | 0.10 | 0.10 | 1 | 1009.3 |
| 20260904053540 | 55 | 250 | 0.0 | 0.0 | 0.00 | 0.10 | 0.10 | 1 | 1009.4 |
| 20260904053041 | 55 | 250 | 0.0 | 0.0 | 0.00 | 0.10 | 0.10 | 1 | 1009.2 |
| 20260904052539 | 55 | 250 | 0.0 | 0.0 | 0.00 | 0.10 | 0.10 | 3 | 1009.3 |
| 20260904052036 | 55 | 282 | 0.0 | 0.0 | 0.00 | 0.10 | 0.10 | 5 | 1009.4 |
| 20260904051536 | 55 | 282 | 0.0 | 0.0 | 0.00 | 0.10 | 0.10 | 6 | 1009.3 |
| 20260904051033 | 55 | 282 | 0.0 | 0.0 | 0.00 | 0.10 | 0.10 | 7 | 1009.4 |
| 20260904050531 | 55 | 214 | 0.0 | 0.0 | 0.00 | 0.10 | 0.10 | 7 | 1009.4 |
| 20260904050032 | 55 | 214 | 0.0 | 0.0 | 0.00 | 0.10 | 0.10 | 7 | 1009.4 |
| 20260904045528 | 55 | 214 | 0.0 | 0.0 | 0.00 | 0.10 | 0.10 | 6 | 1009.4 |
| 20260904045027 | 55 | 214 | 0.0 | 0.0 | 0.00 | 0.10 | 0.10 | 5 | 1009.5 |
| 20260904044538 | 55 | 214 | 0.0 | 0.0 | 0.00 | 0.10 | 0.10 | 5 | 1009.6 |
| 20260904044027 | 55 | 214 | 0.0 | 0.0 | 0.00 | 0.10 | 0.10 | 5 | 1009.5 |
| 20260904043525 | 55 | 214 | 0.0 | 0.0 | 0.00 | 0.10 | 0.10 | 5 | 1009.5 |
| 20260904043021 | 55 | 209 | 0.0 | 0.0 | 0.00 | 0.10 | 0.10 | 5 | 1009.5 |
| 20260904042520 | 55 | 213 | 0.0 | 0.0 | 0.00 | 0.10 | 0.10 | 6 | 1009.5 |
| 20260904042024 | 55 | 212 | 0.0 | 0.0 | 0.00 | 0.10 | 0.10 | 8 | 1009.4 |
| 20260904041531 | 55 | 211 | 0.0 | 0.0 | 0.00 | 0.10 | 0.10 | 9 | 1009.5 |
| 20260904041015 | 56 | 211 | 0.0 | 0.0 | 0.00 | 0.10 | 0.10 | 9 | 1009.5 |
| 20260904040513 | 56 | 211 | 0.0 | 0.0 | 0.00 | 0.10 | 0.10 | 10 | 1009.6 |
| 20260904040015 | 56 | 211 | 0.0 | 0.0 | 0.00 | 0.11 | 0.10 | 10 | 1009.5 |